AALTO-1 (42775 NORAD) Tracking and Keplerian Element Data

This shows tracking and keplerian element data for the satellite.

Feedback or suggestion? Click here.




ElementValue
Catalog42775
NameAALTO-1
Epoch Orbit29212
Epoch Day269.07568675
Epoch Year2022
RAAN303.0892
Inclination97.189
Eccentricity0.0011126
Argument of Perigee337.966
Mean Anonmoly22.1099
Mean Motion15.26807524
Decay Rate6.692E-05
L11 42775U 17036L 22269.07568675 .00006692 00000+0 25624-3 0 9991
L22 42775 97.1890 303.0892 0011126 337.9660 22.1099 15.26807524292120

Live tracking and technical data element details for AALTO-1 (NORAD 42775). AALTO-1 can be tracked NOW for your location showing map with azimuth and elevation plus other details from your city location.

Track the satellite on the map from your city or location and see movement details for azimuth, elevation, latitude, longitude, range, height, and movement on the map or in text.







IsCatalogInMostPopularTable: catalog: 42775, numindb: 602
Update: records affected: 1



GetName: 42775 AALTO-1

Hit Count: updated at: Thu, 29 Sep 2022 10:32:01 GMT